IRIDIUM 106 1 41917U 17003A 25352.18572075 -.00000012 00000+0 -11495-4 0 9993 2 41917 86.3993 164.1802 0002290 97.8894 262.2561 14.34217507467265 IRIDIUM 103 1 41918U 17003B 25352.24280621 .00000083 00000+0 22629-4 0 9991 2 41918 86.3987 164.0567 0001688 101.2691 258.8694 14.34214681467292 IRIDIUM 109 1 41919U 17003C 25352.03984381 .00000038 00000+0 65974-5 0 9994 2 41919 86.3989 164.1979 0001927 93.7405 266.4012 14.34220272467233 IRIDIUM 102 1 41920U 17003D 25352.21743193 -.00000037 00000+0 -20302-4 0 9996 2 41920 86.3991 164.0513 0001900 88.7400 271.4014 14.34216932467349 IRIDIUM 105 1 41921U 17003E 25352.25793962 .00000284 00000+0 94422-4 0 9996 2 41921 86.3982 132.5265 0001926 95.4798 264.6617 14.34215366469207 IRIDIUM 104 1 41922U 17003F 25352.23011558 -.00000018 00000+0 -13505-4 0 9999 2 41922 86.3991 164.0857 0001529 88.9313 271.2058 14.34217774467334 IRIDIUM 114 1 41923U 17003G 25352.02714635 .00000008 00000+0 -40871-5 0 9998 2 41923 86.3991 164.1544 0001708 93.0407 267.0985 14.34216624467288 IRIDIUM 108 1 41924U 17003H 25352.12521509 .00000275 00000+0 90990-4 0 9997 2 41924 86.3976 132.4716 0002095 89.9935 270.1501 14.34218070469155 IRIDIUM 112 1 41925U 17003J 25352.01446838 .00000051 00000+0 11049-4 0 9997 2 41925 86.3983 164.0103 0001857 88.4407 271.7002 14.34217708467303 IRIDIUM 111 1 41926U 17003K 25352.00178477 .00000001 00000+0 -68105-5 0 9990 2 41926 86.3991 164.0821 0001875 94.2840 265.8570 14.34217623467283 IRIDIUM 113 1 42803U 17039A 25352.19105489 .00000166 00000+0 52275-4 0 9998 2 42803 86.3969 37.8167 0001995 94.0546 266.0878 14.34218519445248 IRIDIUM 123 1 42804U 17039B 25352.23253550 .00000215 00000+0 69659-4 0 9996 2 42804 86.3964 69.2833 0002160 105.0755 255.0680 14.34217785444010 IRIDIUM 120 1 42805U 17039C 25352.18471380 .00000198 00000+0 63642-4 0 9990 2 42805 86.3960 37.6254 0002519 95.3301 264.8182 14.34218426445232 IRIDIUM 115 1 42806U 17039D 25352.16509045 .00000329 00000+0 91697-4 0 9996 2 42806 86.4494 37.7373 0002584 104.3960 255.7528 14.43277976448155 IRIDIUM 118 1 42807U 17039E 25352.26424778 .00000050 00000+0 10931-4 0 9990 2 42807 86.3962 69.2689 0001972 96.3497 263.7923 14.34215515444010 IRIDIUM 117 1 42808U 17039F 25352.28327439 .00000247 00000+0 81227-4 0 9993 2 42808 86.3965 69.2204 0002097 102.5170 257.6261 14.34218780444041 IRIDIUM 126 1 42809U 17039G 25352.23887731 .00000057 00000+0 13457-4 0 9994 2 42809 86.3965 69.2873 0001951 100.1433 259.9983 14.34217589444017 IRIDIUM 124 1 42810U 17039H 25352.30689423 .00000338 00000+0 94384-4 0 9992 2 42810 86.4490 5.9795 0002361 96.6277 263.5193 14.43281295449029 IRIDIUM 128 1 42811U 17039J 25352.29938392 .00000153 00000+0 47403-4 0 9998 2 42811 86.3968 100.7962 0002382 97.7541 262.3925 14.34218330444056 IRIDIUM 121 1 42812U 17039K 25352.25790516 .00000262 00000+0 86390-4 0 9998 2 42812 86.3965 69.3056 0002219 94.6412 265.5037 14.34218590443898 IRIDIUM 133 1 42955U 17061A 25352.26133431 .00000255 00000+0 83949-4 0 9998 2 42955 86.3971 100.9255 0002130 97.6506 262.4931 14.34220287428848 IRIDIUM 100 1 42956U 17061B 25351.83637421 .00000018 00000+0 -58618-6 0 9994 2 42956 86.3967 101.0257 0002127 98.9657 261.1780 14.34216184428787 IRIDIUM 122 1 42957U 17061C 25352.29304212 .00000254 00000+0 83505-4 0 9997 2 42957 86.3968 100.8347 0001984 98.8125 261.3296 14.34216595428853 IRIDIUM 129 1 42958U 17061D 25352.24864232 .00000086 00000+0 23551-4 0 9994 2 42958 86.3971 100.9184 0001758 89.9712 270.1686 14.34217820428864 IRIDIUM 119 1 42959U 17061E 25352.28669924 .00000263 00000+0 86679-4 0 9997 2 42959 86.3970 100.8974 0001825 97.7096 262.4307 14.34217820428883 IRIDIUM 107 1 42960U 17061F 25352.23595758 .00000218 00000+0 70719-4 0 9995 2 42960 86.3972 100.9390 0002119 107.4516 252.6911 14.34218347428880 IRIDIUM 132 1 42961U 17061G 25352.24230019 .00000153 00000+0 47586-4 0 9997 2 42961 86.3971 100.9171 0002072 100.0285 260.1144 14.34216558428881 IRIDIUM 136 1 42962U 17061H 25352.27401292 .00000194 00000+0 62363-4 0 9999 2 42962 86.3970 100.9095 0001928 99.0727 261.0688 14.34218103428907 IRIDIUM 139 1 42963U 17061J 25352.28035673 .00000195 00000+0 62575-4 0 9993 2 42963 86.3974 100.9660 0002111 100.1808 259.9626 14.34217739428912 IRIDIUM 125 1 42964U 17061K 25352.26765563 .00000254 00000+0 83530-4 0 9990 2 42964 86.3973 101.0289 0001777 111.8449 248.2936 14.34213936428929 IRIDIUM 135 1 43070U 17083A 25352.17202595 .00000232 00000+0 75630-4 0 9992 2 43070 86.3963 37.6730 0002154 93.0245 267.1197 14.34215918418208 IRIDIUM 138 1 43071U 17083B 25352.26716581 .00000112 00000+0 33076-4 0 9993 2 43071 86.3976 37.3006 0001772 94.5131 265.6267 14.34218132418203 IRIDIUM 116 1 43072U 17083C 25352.16568781 .00000035 00000+0 55738-5 0 9994 2 43072 86.3958 37.6636 0002574 95.4403 264.7087 14.34216567418221 IRIDIUM 130 1 43073U 17083D 25352.20374187 .00000157 00000+0 49020-4 0 9996 2 43073 86.3972 37.9057 0002483 99.5822 260.5655 14.34219554418175 IRIDIUM 151 1 43074U 17083E 25352.17837057 .00000100 00000+0 28509-4 0 9990 2 43074 86.3967 37.7124 0002230 93.2666 266.8785 14.34218089418197 IRIDIUM 134 1 43075U 17083F 25352.14666104 .00000239 00000+0 78120-4 0 9998 2 43075 86.3966 37.7310 0002285 98.9034 261.2421 14.34215379418156 IRIDIUM 137 1 43076U 17083G 25352.15934486 .00000033 00000+0 47963-5 0 9995 2 43076 86.3966 37.8147 0002648 86.8374 273.3125 14.34217371418229 IRIDIUM 141 1 43077U 17083H 25352.22276833 .00000251 00000+0 82634-4 0 9994 2 43077 86.3962 37.6292 0002060 96.5675 263.5756 14.34218584418234 IRIDIUM 153 1 43078U 17083J 25352.31448299 .00000131 00000+0 39758-4 0 9998 2 43078 86.3969 6.0814 0001889 96.9832 263.1578 14.34218488419354 IRIDIUM 131 1 43079U 17083K 25352.21008312 .00000269 00000+0 88989-4 0 9998 2 43079 86.3969 37.8085 0002119 93.3202 266.8236 14.34218731418166 IRIDIUM 144 1 43249U 18030A 25352.32082807 -.00000016 00000+0 -12691-4 0 9992 2 43249 86.3965 6.0121 0002248 94.6329 265.5124 14.34217191404219 IRIDIUM 149 1 43250U 18030B 25352.32716912 .00000147 00000+0 45358-4 0 9994 2 43250 86.3965 5.9785 0002221 92.3022 267.8428 14.34218385404231 IRIDIUM 157 1 43251U 18030C 25352.13689348 .00000261 00000+0 86183-4 0 9994 2 43251 86.3966 6.1071 0002191 87.8398 272.3049 14.34217517404185 IRIDIUM 140 1 43252U 18030D 25352.29545751 .00000043 00000+0 83715-5 0 9998 2 43252 86.3966 6.0538 0002298 94.7616 265.3842 14.34217336404262 IRIDIUM 145 1 43253U 18030E 25352.28277091 .00000234 00000+0 76414-4 0 9996 2 43253 86.3966 6.0317 0002567 93.5440 266.6050 14.34216429404198 IRIDIUM 146 1 43254U 18030F 25352.12421005 .00000263 00000+0 86788-4 0 9993 2 43254 86.3966 6.1109 0002401 92.3638 267.7833 14.34214193404188 IRIDIUM 148 1 43255U 18030G 25352.30180031 .00000081 00000+0 21985-4 0 9991 2 43255 86.3967 6.0770 0002229 88.5714 271.5738 14.34217169404243 IRIDIUM 142 1 43256U 18030H 25352.13055060 .00000082 00000+0 22214-4 0 9993 2 43256 86.3963 6.0442 0002593 93.9938 266.1555 14.34217732404184 IRIDIUM 150 1 43257U 18030J 25352.09883530 .00000241 00000+0 78883-4 0 9990 2 43257 86.3968 6.1679 0002354 93.3804 266.7661 14.34215969404201 IRIDIUM 143 1 43258U 18030K 25351.80073481 .00000254 00000+0 83620-4 0 9994 2 43258 86.3971 6.3779 0002491 93.9050 266.2430 14.34216693404091 IRIDIUM 161 1 43478U 18047C 25352.21550333 .00000109 00000+0 26517-4 0 9999 2 43478 86.4508 164.0936 0001860 87.5836 272.5578 14.43280568399031 IRIDIUM 152 1 43479U 18047D 25352.19206238 .00000014 00000+0 -22033-5 0 9995 2 43479 86.3988 163.9641 0001716 91.8362 268.3030 14.34217371396547 IRIDIUM 147 1 43480U 18047E 25351.91933011 .00000031 00000+0 39898-5 0 9997 2 43480 86.3984 164.0799 0001997 87.2382 272.9043 14.34217491396507 IRIDIUM 110 1 43481U 18047F 25352.20474368 .00000250 00000+0 82054-4 0 9990 2 43481 86.3986 164.0476 0001552 82.9822 277.1550 14.34217807396534 IRIDIUM 162 1 43482U 18047G 25352.00121139 .00000118 00000+0 29150-4 0 9995 2 43482 86.4507 164.0765 0001874 99.4561 260.6852 14.43278891398990 IRIDIUM 160 1 43569U 18061A 25352.29012257 .00000243 00000+0 79619-4 0 9992 2 43569 86.3977 132.4334 0001879 88.3101 271.8310 14.34217439387441 IRIDIUM 166 1 43570U 18061B 25352.24572366 .00000225 00000+0 73384-4 0 9994 2 43570 86.3977 132.4048 0002143 92.0144 268.1297 14.34218050387464 IRIDIUM 158 1 43571U 18061C 25352.28377877 .00000271 00000+0 89750-4 0 9994 2 43571 86.3979 132.3989 0001874 99.9006 260.2402 14.34216486387432 IRIDIUM 165 1 43572U 18061D 25352.23938185 .00000028 00000+0 28022-5 0 9991 2 43572 86.3983 132.4604 0001979 91.8253 268.3170 14.34216733387452 IRIDIUM 155 1 43573U 18061E 25352.27109478 -.00000004 00000+0 -85298-5 0 9995 2 43573 86.3980 132.3253 0001997 99.7987 260.3434 14.34217100387421 IRIDIUM 154 1 43574U 18061F 25352.11252983 .00000129 00000+0 39010-4 0 9995 2 43574 86.3981 132.5160 0002024 92.5210 267.6218 14.34217376387452 IRIDIUM 163 1 43575U 18061G 25351.95396420 .00000144 00000+0 44205-4 0 9991 2 43575 86.3977 132.5033 0001862 95.6959 264.4450 14.34216894387402 IRIDIUM 156 1 43576U 18061H 25352.27743668 .00000256 00000+0 84365-4 0 9993 2 43576 86.3977 132.3752 0002151 99.4641 260.6798 14.34216659387447 IRIDIUM 164 1 43577U 18061J 25352.25841528 -.00000589 00000+0 -21754-3 0 9999 2 43577 86.3984 132.4206 0002084 89.3366 270.8069 14.34210285387485 IRIDIUM 159 1 43578U 18061K 25352.22669648 .00000163 00000+0 51003-4 0 9995 2 43578 86.3978 132.3744 0001978 90.8798 269.2624 14.34217263387440 IRIDIUM 180 1 43922U 19002A 25352.29596061 .00000187 00000+0 59789-4 0 9994 2 43922 86.3965 69.2186 0001959 94.8230 265.3190 14.34218129363060 IRIDIUM 176 1 43923U 19002B 25352.29693576 .00000838 00000+0 12897-3 0 9995 2 43923 86.6085 69.1879 0002329 95.7667 264.3815 14.72255590372632 IRIDIUM 168 1 43924U 19002C 25352.28961336 .00000314 00000+0 10516-3 0 9992 2 43924 86.3967 69.2935 0002089 98.4695 261.6737 14.34215901363045 IRIDIUM 173 1 43925U 19002D 25352.27692582 .00000205 00000+0 66195-4 0 9990 2 43925 86.3964 69.1952 0002068 101.7472 258.3956 14.34219824363021 IRIDIUM 169 1 43926U 19002E 25352.26813466 .00000328 00000+0 10079-3 0 9991 2 43926 86.4225 100.8505 0002298 124.8755 235.2660 14.38609323364214 IRIDIUM 172 1 43927U 19002F 25352.27058498 .00000210 00000+0 67934-4 0 9992 2 43927 86.3963 69.2049 0001965 93.6056 266.5365 14.34215537363035 IRIDIUM 175 1 43928U 19002G 25352.08830954 .00000781 00000+0 11993-3 0 9993 2 43928 86.1498 11.3781 0003219 86.9596 273.1988 14.72245116372590 IRIDIUM 171 1 43929U 19002H 25352.25156725 -.00000146 00000+0 -59131-4 0 9994 2 43929 86.3971 69.4995 0002289 98.4401 261.7055 14.34215222363028 IRIDIUM 170 1 43930U 19002J 25352.23515252 .00000853 00000+0 13137-3 0 9996 2 43930 86.6084 69.2174 0002308 90.9642 269.1840 14.72250320372632 IRIDIUM 167 1 43931U 19002K 25352.24522095 .00000230 00000+0 75007-4 0 9995 2 43931 86.3964 69.2366 0002520 103.1979 256.9498 14.34218287363026 IRIDIUM 181 1 56726U 23068S 25351.87943202 .00000347 00000+0 97032-4 0 9994 2 56726 86.4515 132.5793 0002363 83.9732 276.1738 14.43310633136285 IRIDIUM 177 1 56727U 23068T 25352.21790022 .00001079 00000+0 13849-3 0 9990 2 56727 86.1964 54.7283 0002243 85.4777 274.6700 14.80221240139598 IRIDIUM 174 1 56728U 23068U 25352.29074780 .00000553 00000+0 83891-4 0 9996 2 56728 86.6094 69.3232 0002040 88.6763 271.4688 14.72243654139403 IRIDIUM 178 1 56729U 23068V 25352.27453677 .00001232 00000+0 15858-3 0 9993 2 56729 86.6542 100.9868 0002523 96.1235 264.0274 14.80250797139609 IRIDIUM 179 1 56730U 23068W 25352.26920726 .00001196 00000+0 15398-3 0 9996 2 56730 86.6783 109.4287 0002400 89.0638 271.0858 14.80238626139602